Houston Hull, TX

8:28 AM CDT on May 30, 2017 (GMT -0500)
Sugar Land Municipal-Hull

Weather History for KSGR - March, 2014

Change the Weather History Date:

Wednesday, March 19, 2014

  Actual Average Record
Temperature  
Mean Temperature 66 °F -  
Max Temperature 75 °F 74 °F 86 °F (1953)
Min Temperature 57 °F 52 °F 33 °F (1988)
Cooling Degree Days 1    
Growing Degree Days 16 (Base 50)    
Moisture  
Dew Point 56 °F    
Average Humidity 74    
Maximum Humidity 96    
Minimum Humidity 52    
Precipitation  
Precipitation 0.00 in - - ()
Sea Level Pressure  
Sea Level Pressure 30.04 in    
Wind  
Wind Speed 7 mph (NNW)    
Max Wind Speed 14 mph    
Max Gust Speed -    
Visibility 10 miles    
Events      
Averages and records for this station are not official NWS values.
T = Trace of Precipitation, MM = Missing Value Source: NWS Daily Summary

Daily Weather History Graph

Daily Weather History Graph

Search for Another Location

Airport or City:

Trip Planner

Search our weather history database for the weather conditions in past years. The results will help you decide how hot, cold, wet, or windy it might be!

Date:

Astronomy

Mar. 19, 2014 Rise Set
Actual Time 7:27 AM CDT 7:33 PM CDT
Civil Twilight 7:03 AM CDT 7:57 PM CDT
Nautical Twilight 6:36 AM CDT 8:24 PM CDT
Astronomical Twilight 6:08 AM CDT 8:52 PM CDT
Moon 10:36 PM CDT (3/19) 9:08 AM CDT (3/19)
Length of Visible Light 12h 53m
Length of Day
12h 05m
Waning Gibbous, 91% of the Moon is Illuminated
Mar 19
Waning Gibbous
Mar 23
Last Quarter
Mar 30
New
Apr 7
First Quarter
Apr 15
Full

Hourly Weather History & Observations

Time (CDT) Temp. Dew Point Humidity Pressure Visibility Wind Dir Wind Speed Gust Speed Precip Events Conditions
12:53 AM 62.1 °F 57.9 °F 86% 29.88 in 10.0 mi South 13.8 mph - N/A   Clear
1:53 AM 63.0 °F 57.9 °F 84% 29.88 in 10.0 mi South 12.7 mph - N/A   Clear
2:53 AM 62.1 °F 57.9 °F 86% 29.90 in 10.0 mi South 8.1 mph - N/A   Clear
3:53 AM 57.9 °F 55.0 °F 90% 29.92 in 10.0 mi NNW 6.9 mph - N/A   Clear
4:53 AM 61.0 °F 57.9 °F 90% 29.96 in 10.0 mi North 5.8 mph - N/A   Overcast
5:53 AM 61.0 °F 57.9 °F 90% 29.98 in 10.0 mi Calm Calm - N/A   Overcast
6:07 AM 61.0 °F 57.9 °F 90% 29.99 in 10.0 mi North 3.5 mph - N/A   Overcast
6:51 AM 62.6 °F 57.2 °F 82% 29.99 in 10.0 mi NE 3.5 mph - N/A   Overcast
6:53 AM 62.1 °F 57.9 °F 86% 30.00 in 10.0 mi Calm Calm - N/A   Overcast
7:53 AM 57.0 °F 55.9 °F 96% 30.01 in 9.0 mi Calm Calm - N/A   Clear
8:27 AM 62.1 °F 60.1 °F 93% 30.02 in 10.0 mi Calm Calm - N/A   Mostly Cloudy
8:53 AM 64.0 °F 60.1 °F 87% 30.04 in 10.0 mi Calm Calm - N/A   Overcast
9:53 AM 66.0 °F 60.1 °F 81% 30.06 in 10.0 mi ESE 3.5 mph - N/A   Overcast
10:36 AM 62.1 °F 59.0 °F 90% 30.09 in 8.0 mi NW 10.4 mph - N/A   Overcast
10:49 AM 62.6 °F 59.0 °F 88% 30.10 in 8.0 mi NW 10.4 mph - N/A   Overcast
10:53 AM 62.1 °F 57.9 °F 86% 30.10 in 7.0 mi NNW 9.2 mph - N/A   Overcast
11:10 AM 63.0 °F 53.1 °F 70% 30.10 in 8.0 mi NNW 9.2 mph - N/A   Overcast
11:53 AM 64.0 °F 51.1 °F 63% 30.11 in 8.0 mi NW 6.9 mph - N/A   Overcast
12:53 PM 68.0 °F 52.0 °F 56% 30.10 in 10.0 mi NW 6.9 mph - N/A   Overcast
1:53 PM 71.1 °F 57.0 °F 61% 30.09 in 10.0 mi Variable 6.9 mph - N/A   Overcast
2:53 PM 73.0 °F 57.9 °F 59% 30.07 in 10.0 mi North 9.2 mph - N/A   Overcast
3:53 PM 75.0 °F 57.9 °F 55% 30.06 in 10.0 mi North 9.2 mph - N/A   Overcast
4:53 PM 73.0 °F 55.0 °F 53% 30.06 in 10.0 mi North 8.1 mph - N/A   Overcast
5:53 PM 73.9 °F 55.0 °F 52% 30.05 in 10.0 mi NNW 9.2 mph - N/A   Scattered Clouds
6:53 PM 71.1 °F 55.9 °F 59% 30.06 in 10.0 mi North 5.8 mph - N/A   Clear
7:53 PM 66.9 °F 54.0 °F 63% 30.08 in 10.0 mi NNW 5.8 mph - N/A   Clear
8:53 PM 66.0 °F 55.0 °F 68% 30.11 in 10.0 mi WNW 5.8 mph - N/A   Overcast
9:53 PM 66.0 °F 51.1 °F 59% 30.14 in 10.0 mi NW 3.5 mph - N/A   Overcast
10:53 PM 63.0 °F 46.9 °F 56% 30.14 in 10.0 mi NNW 9.2 mph - N/A   Overcast
11:53 PM 62.1 °F 45.0 °F 53% 30.15 in 10.0 mi NNW 8.1 mph - N/A   Overcast